Flag for France Weather past 2 weeks in Orléans, France

54 °F

Mostly cloudy.

Feels Like: 48 °F
Forecast: 49 / 54 °F
Wind: 20 mph from Southwest

Location: Orleans Airport

Current Time: Nov 30, 2015 at 6:14:44 PM

Latest Report: Nov 30, 2015 at 5:30 PM

Visibility: N/A

Pressure: 30.30 "Hg

Humidity: 77%

Dew point: 46 °F

Location of OrléansLocation

Historic Weather in Orléans — Graph


Orléans temperature yesterday

Maximum temperature yesterday: 54 °F (at 11:30 AM)
Minimum temperature yesterday: 45 °F (at 12:00 AM)
Average temperature yesterday: 51 °F

Past Weeks' High & Low Weather Summary

High61 °F (Nov 17, 4:00 PM)100% (Nov 15, 11:30 PM)30.39 "Hg (Nov 15, 11:30 PM)
Low28 °F (Nov 23, 10:00 PM)53% (Nov 22, 3:30 PM)29.62 "Hg (Nov 21, 4:00 AM)
Average46 °F88%30.06 "Hg
* Reported Nov 15 5:00 PM — Nov 30 5:00 PM, Orléans, Weather by CustomWeather, © 2015

Note: Actual official high and low records may vary slightly from our data, if they occured in-between our weather recording intervals... More about our weather records


Orléans weather history for previous 24 hours

Time TempWeatherWind HumidityBarometerVisibility
5:00 PM
Mon, Nov 30
54 °FMore clouds than sun.20 mph77%30.30 "HgN/A
4:30 PM54 °FMore clouds than sun.22 mph77%30.30 "HgN/A
4:00 PM54 °FMore clouds than sun.21 mph77%30.30 "HgN/A
3:30 PM54 °FSunny.17 mph82%30.30 "Hg10 mi
3:00 PM52 °FLight rain. Broken clouds.18 mph94%30.33 "HgN/A
2:30 PM55 °FMostly cloudy.24 mph72%30.30 "HgN/A
2:00 PM55 °FSunny.23 mph77%30.33 "Hg10 mi
1:30 PM55 °FPartly sunny.22 mph77%30.33 "HgN/A
1:00 PM54 °FMostly cloudy.20 mph82%30.36 "HgN/A
12:30 PM54 °FBroken clouds.22 mph82%30.36 "HgN/A
12:00 PM54 °FMore clouds than sun.21 mph82%30.36 "HgN/A
11:30 AM54 °FOvercast.18 mph82%30.36 "HgN/A
11:00 AM52 °FSunny.20 mph88%30.39 "Hg10 mi
10:30 AM52 °FPartly sunny.18 mph88%30.39 "HgN/A
10:00 AM52 °FBroken clouds.20 mph88%30.39 "HgN/A
9:30 AM52 °FPartly sunny.17 mph88%30.36 "HgN/A
9:00 AM52 °FOvercast.16 mph88%30.36 "HgN/A
8:00 AM50 °FPartly cloudy.16 mph94%30.36 "HgN/A
7:30 AM50 °FMostly cloudy.16 mph94%30.36 "HgN/A
7:00 AM50 °FPassing clouds.17 mph94%30.36 "HgN/A
6:30 AM50 °FPassing clouds.16 mph88%30.36 "HgN/A
6:00 AM50 °FClear.16 mph88%30.36 "Hg10 mi
5:30 AM50 °FClear.18 mph88%30.36 "Hg10 mi
4:30 AM50 °FMostly cloudy.18 mph88%30.33 "HgN/A
4:00 AM50 °FClear.17 mph88%30.33 "Hg10 mi
3:30 AM50 °FClear.16 mph82%30.33 "Hg10 mi
3:00 AM50 °FPassing clouds.16 mph82%30.33 "HgN/A
2:30 AM50 °FClear.15 mph88%30.33 "Hg10 mi
1:30 AM50 °FClear.18 mph82%30.30 "Hg10 mi
1:00 AM50 °FClear.16 mph82%30.30 "Hg10 mi
12:30 AM52 °FClear.20 mph77%30.30 "Hg10 mi
12:00 AM52 °FClear.17 mph77%30.30 "Hg10 mi
11:30 PM
Sun, Nov 29
52 °FPassing clouds.22 mph77%30.30 "HgN/A
11:00 PM52 °FPartly cloudy.22 mph77%30.30 "HgN/A
10:30 PM52 °FClear.20 mph77%30.30 "Hg10 mi
10:00 PM52 °FClear.21 mph82%30.30 "Hg10 mi
9:30 PM52 °FClear.22 mph82%30.27 "Hg10 mi
9:00 PM52 °FClear.21 mph82%30.27 "Hg10 mi
8:30 PM52 °FClear.23 mph77%30.27 "Hg10 mi
8:00 PM52 °FClear.21 mph77%30.27 "Hg10 mi
7:30 PM52 °FClear.22 mph82%30.24 "Hg10 mi
7:00 PM54 °FMostly cloudy.23 mph77%30.24 "HgN/A
6:30 PM54 °FOvercast.23 mph77%30.24 "HgN/A
6:00 PM54 °FClear.22 mph77%30.24 "Hg10 mi
Weather by CustomWeather, © 2015

See weather overviewHow to use our weather pages